Waarnemingen

Advertentie
Mijn weer
Pertusato, Frankrijk (7770): temperatuur & dauwpunt: 14.11.2018 12:00:00 - 20.11.2018 12:00:00 (CET)Pertusato, Frankrijk (7770): windsnelheid & windstoten: 14.11.2018 12:00:00 - 20.11.2018 12:00:00 (CET)Pertusato, Frankrijk (7770): windrichting: 14.11.2018 12:00:00 - 20.11.2018 12:00:00 (CET)Pertusato, Frankrijk (7770): luchtdruk: 14.11.2018 12:00:00 - 20.11.2018 12:00:00 (CET)Pertusato, Frankrijk (7770): zicht: 14.11.2018 12:00:00 - 20.11.2018 12:00:00 (CET)Pertusato, Frankrijk (7770): neerslag: 14.11.2018 12:00:00 - 20.11.2018 12:00:00 (CET)
Datum & Tijd tt [°C] td [°C] ff [km/u] ff [kn] fx [km/u] fx [kn] dd ppp [hPa] vv [km] rr [mm]
20.11.2018 12:00:00 12,9 11,1 - - - - - 1001,3 - 0,2
20.11.2018 11:00:00 12,9 11,0 - - - - - 1001,4 - 0,0
20.11.2018 10:00:00 11,3 8,3 - - - - - 1000,6 - 0,0
20.11.2018 09:00:00 10,6 7,8 - - - - - 999,6 - 0,0
20.11.2018 08:00:00 10,3 8,2 - - - - - 998,3 - 0,0
20.11.2018 07:00:00 10,0 8,6 - - - - - 997,7 10 0,0
20.11.2018 06:00:00 10,1 9,0 - - - - - 997,5 - 0,4
20.11.2018 05:00:00 10,1 9,2 - - - - - 996,9 8 0,2
20.11.2018 04:00:00 10,1 9,3 - - - - - 997,0 - 0,2
20.11.2018 03:00:00 10,3 9,4 - - - - - 997,5 - 0,4
20.11.2018 02:00:00 10,7 9,8 - - - - - 997,6 - 0,2
20.11.2018 01:00:00 10,5 9,6 - - - - - 997,4 - 0,6
20.11.2018 00:00:00 10,6 9,7 - - - - - 997,5 - 0,6
19.11.2018 23:00:00 10,4 9,6 - - - - - 998,0 - 0,2
19.11.2018 22:00:00 10,3 9,7 - - - - - 998,1 - 1,4
19.11.2018 21:00:00 10,0 9,4 - - - - - 999,0 - 0,8
19.11.2018 20:00:00 10,3 9,5 - - - - - 998,9 - 1,6
19.11.2018 19:00:00 10,4 9,3 - - - - - 999,0 2,0 0,2
19.11.2018 18:00:00 10,5 9,7 - - - - - 999,1 - 0,2
19.11.2018 17:00:00 10,1 9,3 - - - - - 999,1 - 0,2
19.11.2018 16:00:00 10,1 9,5 - - - - - 999,7 - 0,4
19.11.2018 15:00:00 10,3 9,7 27 15 54 29 ZZO 1000,6 - 1,6
19.11.2018 14:00:00 10,2 9,4 24 13 41 22 ZO 1001,3 - 6,9
19.11.2018 13:00:00 10,7 9,8 22 12 40 22 ZO 1002,5 5 2,8
19.11.2018 12:00:00 10,9 8,8 26 14 45 24 ZZO 1003,4 - 0,0
19.11.2018 11:00:00 11,6 8,6 28 15 50 27 ZZO 1004,2 - 0,0
19.11.2018 10:00:00 11,9 8,9 26 14 46 25 ZZO 1005,1 - 0,0
19.11.2018 09:00:00 11,7 8,4 26 14 44 24 ZZO 1005,0 - 0,0
19.11.2018 08:00:00 10,6 7,1 25 14 38 21 ZZO 1005,4 - 0,0
19.11.2018 07:00:00 9,6 6,5 25 13 36 19 ZZO 1005,7 18 0,0
19.11.2018 06:00:00 9,8 6,7 25 14 37 20 ZZO 1006,1 - 0,0
19.11.2018 05:00:00 9,5 6,2 22 12 32 17 ZO 1006,8 - 0,0
19.11.2018 04:00:00 9,6 6,1 21 11 31 17 ZO 1007,5 18 0,0
19.11.2018 03:00:00 9,8 5,8 21 11 29 16 ZO 1008,4 - 0,0
19.11.2018 02:00:00 9,8 4,8 20 11 29 16 ZO 1009,0 - 0,0
19.11.2018 01:00:00 9,5 4,1 17 9 27 14 OZO 1009,8 - 0,0
19.11.2018 00:00:00 9,5 4,3 18 10 26 14 ZO 1010,2 - 0,0
18.11.2018 23:00:00 9,1 4,1 17 9 27 14 ZO 1010,8 - 0,0
18.11.2018 22:00:00 9,4 4,0 19 10 26 14 ZO 1011,0 - 0,0
18.11.2018 21:00:00 10,7 4,8 18 10 30 16 ZO 1011,3 - 0,0
18.11.2018 20:00:00 10,8 4,3 21 11 32 17 ZO 1012,1 - 0,0
18.11.2018 19:00:00 10,0 5,2 19 11 30 16 ZO 1012,5 - 0,0
18.11.2018 18:00:00 10,3 5,3 17 9 40 21 OZO 1012,6 - 0,0
18.11.2018 17:00:00 11,1 5,2 19 11 44 24 ZO 1012,5 - 0,0
18.11.2018 16:00:00 12,4 5,8 26 14 52 28 ZZO 1012,7 20 0,0
18.11.2018 15:00:00 13,2 6,8 31 17 57 31 Z 1012,7 - 0,0
18.11.2018 14:00:00 13,7 6,8 32 18 55 30 Z 1012,9 - 0,0
18.11.2018 13:00:00 13,6 7,4 37 20 58 31 Z 1013,3 20 0,0
18.11.2018 12:00:00 13,3 7,1 36 19 61 33 Z 1014,1 - 0,0
18.11.2018 11:00:00 12,9 6,9 34 18 55 30 Z 1015,0 - 0,0
18.11.2018 10:00:00 12,3 7,4 35 19 59 32 Z 1015,2 20 0,0
18.11.2018 09:00:00 10,9 6,8 35 19 57 31 Z 1014,8 - 0,0
18.11.2018 08:00:00 10,5 6,8 32 17 54 29 Z 1014,6 - 0,0
18.11.2018 07:00:00 9,9 6,2 33 18 54 29 Z 1014,2 8 0,0
18.11.2018 06:00:00 10,0 6,9 35 19 56 31 Z 1013,8 - 0,0
18.11.2018 05:00:00 10,1 7,0 32 17 55 30 Z 1014,2 - 0,0
18.11.2018 04:00:00 9,6 6,9 31 17 52 28 ZZO 1014,4 15 0,0
18.11.2018 03:00:00 9,9 7,5 29 16 53 29 ZZO 1014,7 - 0,0
18.11.2018 02:00:00 10,0 8,4 27 15 45 25 ZZO 1015,3 - 9,5
18.11.2018 01:00:00 10,3 9,1 15 8 41 22 OZO 1016,2 - 3,7
18.11.2018 00:00:00 10,3 8,7 18 10 41 22 ZO 1016,4 - 0,2
17.11.2018 23:00:00 9,9 8,8 20 11 48 26 ZO 1016,6 - 3,4
17.11.2018 22:00:00 9,8 8,6 26 14 44 24 ZZO 1016,6 - 0,6
17.11.2018 21:00:00 9,6 8,0 24 13 35 19 ZO 1016,6 - 2,2
17.11.2018 20:00:00 9,4 7,8 13 7 31 17 OZO 1017,0 - 3,1
17.11.2018 19:00:00 9,7 8,3 21 11 31 17 ZO 1016,9 - 4,0
17.11.2018 18:00:00 10,1 8,7 15 8 44 24 O 1017,0 - 11,7
17.11.2018 17:00:00 10,0 7,6 20 11 35 19 ZO 1016,7 - 0,2
17.11.2018 16:00:00 9,9 7,5 23 12 43 23 ZO 1016,7 - 1,0
17.11.2018 15:00:00 11,1 8,3 25 13 53 29 ZZO 1016,8 - 0,4
17.11.2018 14:00:00 12,5 7,2 26 14 54 29 ZZO 1016,7 - 0,0
17.11.2018 13:00:00 12,6 6,0 32 17 60 32 ZZO 1017,0 18 0,0
17.11.2018 12:00:00 12,6 6,4 29 16 56 30 ZZO 1017,6 - 0,0
17.11.2018 11:00:00 11,4 7,3 33 18 57 31 Z 1018,3 - 0,2
17.11.2018 10:00:00 12,6 6,0 32 17 67 36 Z 1018,3 18 0,0
17.11.2018 09:00:00 12,6 5,7 38 20 68 37 Z 1018,1 - 0,0
17.11.2018 08:00:00 12,0 5,2 36 19 60 33 Z 1017,9 - 0,0
17.11.2018 07:00:00 11,9 4,6 35 19 59 32 Z 1017,8 15 0,0
17.11.2018 06:00:00 12,0 4,9 35 19 60 33 Z 1017,8 - 0,0
17.11.2018 05:00:00 11,9 4,6 33 18 58 31 Z 1018,1 - 0,0
17.11.2018 04:00:00 12,2 4,9 36 19 63 34 Z 1018,5 - 0,0
17.11.2018 03:00:00 12,4 4,8 34 18 65 35 Z 1019,1 - 0,0
17.11.2018 02:00:00 12,7 5,1 37 20 62 34 Z 1019,4 - 0,0
17.11.2018 01:00:00 13,1 5,3 39 21 67 36 Z 1019,6 15 0,0
17.11.2018 00:00:00 13,6 4,7 41 22 70 38 Z 1019,7 - 0,0
16.11.2018 23:00:00 13,7 5,1 37 20 67 36 Z 1019,8 - 0,0
16.11.2018 22:00:00 14,1 5,7 30 16 59 32 Z 1020,2 - 0,0
16.11.2018 21:00:00 14,4 6,2 34 19 58 31 Z 1020,1 - 0,0
16.11.2018 20:00:00 14,1 6,2 29 15 51 28 ZZO 1020,1 - 0,0
16.11.2018 19:00:00 14,1 7,2 30 16 47 25 ZZO 1019,8 16 0,0
16.11.2018 18:00:00 14,1 7,4 23 12 49 26 ZO 1020,0 - 0,0
16.11.2018 17:00:00 14,4 8,3 27 14 57 31 ZZO 1019,7 - 0,0
16.11.2018 16:00:00 15,6 8,3 36 19 67 36 Z 1019,5 16 0,0
16.11.2018 15:00:00 16,3 8,3 35 19 65 35 Z 1019,5 - 0,0
16.11.2018 14:00:00 16,5 8,7 39 21 66 36 Z 1019,7 - 0,0
16.11.2018 13:00:00 16,9 9,3 39 21 67 36 Z 1019,8 16 0,0
16.11.2018 12:00:00 17,1 9,3 39 21 64 35 Z 1019,9 - 0,0
16.11.2018 11:00:00 16,7 11,0 35 19 57 31 Z 1020,2 - 0,0
16.11.2018 10:00:00 16,3 11,4 29 16 56 30 ZZO 1020,2 16 0,0
16.11.2018 09:00:00 16,2 11,6 31 17 50 27 Z 1020,3 - 0,0
16.11.2018 08:00:00 14,4 12,1 16 9 31 17 ZO 1020,5 - 0,0
16.11.2018 07:00:00 13,4 10,6 16 8 24 13 OZO 1020,3 13 0,0
16.11.2018 06:00:00 13,2 10,7 13 7 26 14 OZO 1020,1 - 0,0
16.11.2018 05:00:00 14,4 11,4 23 12 34 18 ZO 1020,0 - 0,0
16.11.2018 04:00:00 14,3 11,4 20 11 27 15 ZO 1019,7 10 0,0
16.11.2018 03:00:00 14,2 11,7 18 10 26 14 ZO 1019,9 - 0,0
16.11.2018 02:00:00 13,8 11,8 14 7 19 11 OZO 1020,5 - 0,0
16.11.2018 01:00:00 14,0 12,2 14 7 21 11 OZO 1020,6 - 0,0
16.11.2018 00:00:00 14,3 12,7 13 7 18 10 OZO 1020,6 - 0,0
15.11.2018 23:00:00 14,1 12,8 11 6 18 10 OZO 1020,4 - 0,0
15.11.2018 22:00:00 14,4 12,6 11 6 17 9 OZO 1020,4 - 0,0
15.11.2018 21:00:00 14,8 12,5 11 6 22 12 O 1020,2 - 0,0
15.11.2018 20:00:00 15,1 13,0 13 7 21 11 OZO 1020,3 - 0,0
15.11.2018 19:00:00 15,1 13,1 11 6 16 9 OZO 1020,7 10 0,0
15.11.2018 18:00:00 15,1 13,1 13 7 20 11 OZO 1020,5 - 0,0
15.11.2018 17:00:00 15,4 12,9 14 7 19 11 OZO 1020,4 - 0,0
15.11.2018 16:00:00 16,1 13,0 11 6 21 11 O 1020,8 - 0,0
15.11.2018 15:00:00 17,4 13,7 15 8 24 13 OZO 1021,0 - 0,0
15.11.2018 14:00:00 17,5 13,4 16 9 26 14 OZO 1021,3 - 0,0
15.11.2018 13:00:00 19,4 13,8 16 8 27 14 O 1021,9 15 0,0
15.11.2018 12:00:00 18,9 13,3 17 9 30 16 OZO 1022,7 - 0,0
15.11.2018 11:00:00 17,8 14,3 18 10 27 15 OZO 1023,0 - 0,0
15.11.2018 10:00:00 16,9 14,5 18 10 28 15 OZO 1023,0 14 0,0
15.11.2018 09:00:00 15,9 14,8 16 9 25 13 OZO 1022,9 - 0,0
15.11.2018 08:00:00 14,0 13,5 16 9 22 12 OZO 1023,0 - 0,0
15.11.2018 07:00:00 13,8 13,5 14 8 18 10 OZO 1022,7 - 0,2
15.11.2018 06:00:00 13,9 13,6 14 8 19 10 OZO 1022,7 - 0,0
15.11.2018 05:00:00 14,2 13,9 14 8 20 11 OZO 1022,5 - 0,0
15.11.2018 04:00:00 14,1 13,8 11 6 18 10 OZO 1022,8 - 0,0
15.11.2018 03:00:00 14,2 13,7 13 7 18 10 OZO 1023,2 - 0,0
15.11.2018 02:00:00 13,9 13,4 13 7 17 9 OZO 1023,7 - 0,2
15.11.2018 01:00:00 14,0 13,5 12 6 20 11 OZO 1024,1 - 0,0
15.11.2018 00:00:00 14,5 14,0 14 8 22 12 OZO 1024,3 - 0,0
14.11.2018 23:00:00 14,6 14,1 14 7 23 13 OZO 1024,2 - 0,0
14.11.2018 22:00:00 15,3 14,8 16 8 24 13 OZO 1024,4 - 0,0
14.11.2018 21:00:00 14,7 14,1 11 6 16 9 OZO 1024,4 - 0,2
14.11.2018 20:00:00 15,3 14,5 11 6 17 9 OZO 1024,7 - 0,0
14.11.2018 19:00:00 15,5 14,7 12 7 17 9 OZO 1024,9 - 0,0
14.11.2018 18:00:00 15,7 14,7 11 6 16 9 OZO 1024,7 - 0,0
14.11.2018 17:00:00 16,6 15,0 10 5 19 11 O 1024,8 - 0,0
14.11.2018 16:00:00 18,1 15,4 14 7 27 15 O 1025,0 14 0,0
14.11.2018 15:00:00 18,9 15,4 21 11 29 16 ZO 1025,1 - 0,0
14.11.2018 14:00:00 19,7 15,3 17 9 31 17 OZO 1025,2 - 0,0
14.11.2018 13:00:00 19,3 15,6 17 9 29 16 OZO 1026,0 14 0,0
14.11.2018 12:00:00 19,5 16,0 19 10 29 16 OZO 1026,5 - 0,0

tt = temperatuur
td = dauwpunt
ff = windsnelheid
fx = windstoten
dd = windrichting
ppp = luchtdruk
vv = zicht
rr = neerslag

Weerstations in de omgeving